| time (UTC) | temp C | wind direction | speed KPH | gust KPH | rain 1hr cm | rain 24hr cm | rain mn cm | humidity % | barometer mb |
| 20260508074732 | 10 | 9 | 9.7 | 19.3 | 0.00 | 0.00 | 0.00 | 31 | 1027.1 |
| 20260508072732 | 10 | 8 | 9.7 | 16.1 | 0.00 | 0.00 | 0.00 | 33 | 1027.0 |
| 20260508070733 | 10 | 15 | 6.4 | 11.3 | 0.00 | 0.00 | 0.00 | 35 | 1026.9 |
| 20260508064732 | 9 | 32 | 9.7 | 16.1 | 0.00 | 0.00 | 0.00 | 37 | 1026.8 |
| 20260508062732 | 8 | 18 | 9.7 | 14.5 | 0.00 | 0.00 | 0.00 | 34 | 1026.6 |
| 20260508060732 | 8 | 54 | 9.7 | 14.5 | 0.00 | 0.00 | 0.00 | 40 | 1026.3 |
| 20260508052733 | 6 | 29 | 6.4 | 9.7 | 0.00 | 0.00 | 0.00 | 55 | 1026.0 |
| 20260508050732 | 5 | 17 | 4.8 | 6.4 | 0.00 | 0.00 | 0.00 | 63 | 1025.8 |
| 20260508044733 | 5 | 18 | 1.6 | 3.2 | 0.00 | 0.00 | 0.00 | 67 | 1025.8 |
| 20260508042731 | 3 | 0.0 | 1.6 | 0.00 | 0.00 | 0.00 | 76 | 1025.7 | |
| 20260508040731 | 0 | 283 | 1.6 | 3.2 | 0.00 | 0.00 | 0.00 | 85 | 1025.6 |
| 20260508034731 | -1 | 267 | 4.8 | 4.8 | 0.00 | 0.00 | 0.00 | 87 | 1025.5 |
| 20260508032732 | -1 | 267 | 4.8 | 6.4 | 0.00 | 0.00 | 0.00 | 88 | 1025.3 |
| 20260508030732 | -2 | 267 | 3.2 | 3.2 | 0.00 | 0.00 | 0.00 | 93 | 1025.2 |
| 20260508024731 | -2 | 253 | 3.2 | 4.8 | 0.00 | 0.00 | 0.00 | 93 | 1025.0 |
| 20260508022730 | -2 | 263 | 3.2 | 3.2 | 0.00 | 0.00 | 0.00 | 92 | 1024.6 |
| 20260508020731 | -2 | 275 | 3.2 | 4.8 | 0.00 | 0.00 | 0.00 | 87 | 1024.3 |
| 20260508014731 | -2 | 322 | 1.6 | 3.2 | 0.00 | 0.00 | 0.00 | 88 | 1024.1 |
| 20260508012731 | -2 | 0.0 | 1.6 | 0.00 | 0.00 | 0.00 | 90 | 1023.8 | |
| 20260508010732 | -2 | 345 | 3.2 | 4.8 | 0.00 | 0.00 | 0.00 | 90 | 1023.7 |
| 20260508004732 | -2 | 353 | 3.2 | 4.8 | 0.00 | 0.00 | 0.00 | 90 | 1023.5 |
| 20260508002732 | -1 | 329 | 3.2 | 6.4 | 0.00 | 0.00 | 0.00 | 87 | 1023.3 |
| 20260507234732 | 0 | 339 | 3.2 | 4.8 | 0.00 | 0.00 | 0.00 | 80 | 1022.7 |
| 20260507232731 | 0 | 353 | 4.8 | 8.0 | 0.00 | 0.00 | 0.00 | 76 | 1022.5 |
| 20260507230731 | -1 | 1 | 4.8 | 8.0 | 0.00 | 0.00 | 0.00 | 75 | 1022.4 |
| 20260507224730 | 1 | 343 | 4.8 | 6.4 | 0.00 | 0.00 | 0.00 | 70 | 1022.2 |
| 20260507222731 | 0 | 326 | 3.2 | 4.8 | 0.00 | 0.00 | 0.00 | 67 | 1022.0 |
| 20260507220731 | 1 | 288 | 3.2 | 4.8 | 0.00 | 0.00 | 0.00 | 65 | 1021.8 |
| 20260507212730 | 1 | 315 | 4.8 | 6.4 | 0.00 | 0.00 | 0.00 | 63 | 1021.3 |
| 20260507210730 | 2 | 269 | 6.4 | 6.4 | 0.00 | 0.00 | 0.00 | 55 | 1021.0 |
| 20260507204731 | 3 | 282 | 6.4 | 6.4 | 0.00 | 0.00 | 0.00 | 54 | 1020.7 |
| 20260507202730 | 5 | 304 | 6.4 | 9.7 | 0.00 | 0.00 | 0.00 | 49 | 1020.4 |
| 20260507200731 | 5 | 313 | 6.4 | 9.7 | 0.00 | 0.00 | 0.00 | 49 | 1020.1 |
| 20260507194730 | 6 | 325 | 6.4 | 12.9 | 0.00 | 0.00 | 0.00 | 46 | 1019.8 |
| 20260507192730 | 6 | 322 | 4.8 | 9.7 | 0.00 | 0.00 | 0.00 | 44 | 1019.5 |
| 20260507190729 | 7 | 326 | 6.4 | 11.3 | 0.00 | 0.00 | 0.00 | 41 | 1019.3 |
| 20260507184730 | 7 | 336 | 9.7 | 16.1 | 0.00 | 0.00 | 0.00 | 39 | 1019.1 |
| 20260507182729 | 8 | 343 | 9.7 | 20.9 | 0.00 | 0.00 | 0.00 | 35 | 1018.9 |
| 20260507180729 | 9 | 333 | 9.7 | 16.1 | 0.00 | 0.00 | 0.00 | 32 | 1018.6 |
| 20260507174730 | 10 | 337 | 11.3 | 24.1 | 0.00 | 0.00 | 0.00 | 29 | 1018.3 |
| 20260507172729 | 10 | 333 | 14.5 | 22.5 | 0.00 | 0.00 | 0.00 | 27 | 1018.1 |
| 20260507170729 | 11 | 327 | 16.1 | 27.4 | 0.00 | 0.00 | 0.00 | 22 | 1017.9 |
| 20260507164730 | 11 | 309 | 16.1 | 24.1 | 0.00 | 0.00 | 0.00 | 20 | 1017.7 |
| 20260507162729 | 11 | 322 | 16.1 | 27.4 | 0.00 | 0.00 | 0.00 | 19 | 1017.5 |
| 20260507160730 | 12 | 318 | 16.1 | 29.0 | 0.00 | 0.00 | 0.00 | 19 | 1017.4 |
| 20260507154729 | 12 | 335 | 17.7 | 27.4 | 0.00 | 0.00 | 0.00 | 19 | 1017.2 |
| 20260507152728 | 12 | 346 | 17.7 | 30.6 | 0.00 | 0.00 | 0.00 | 18 | 1017.0 |
| 20260507150731 | 12 | 310 | 17.7 | 27.4 | 0.00 | 0.00 | 0.00 | 18 | 1016.8 |
| 20260507142730 | 13 | 291 | 20.9 | 35.4 | 0.00 | 0.00 | 0.00 | 18 | 1016.4 |
| 20260507140729 | 12 | 287 | 20.9 | 35.4 | 0.00 | 0.00 | 0.00 | 19 | 1016.3 |
| 20260507134730 | 13 | 308 | 17.7 | 32.2 | 0.00 | 0.00 | 0.00 | 19 | 1016.3 |
| 20260507132728 | 13 | 295 | 17.7 | 27.4 | 0.00 | 0.00 | 0.00 | 20 | 1016.2 |
| 20260507130729 | 13 | 280 | 20.9 | 30.6 | 0.00 | 0.00 | 0.00 | 21 | 1016.1 |
| 20260507124728 | 13 | 253 | 11.3 | 19.3 | 0.00 | 0.00 | 0.00 | 18 | 1016.2 |
| 20260507122728 | 13 | 303 | 6.4 | 22.5 | 0.00 | 0.00 | 0.00 | 18 | 1016.2 |
| 20260507120729 | 12 | 253 | 8.0 | 16.1 | 0.00 | 0.00 | 0.00 | 17 | 1016.1 |
| 20260507114729 | 12 | 286 | 14.5 | 20.9 | 0.00 | 0.00 | 0.00 | 19 | 1016.1 |
| 20260507112727 | 12 | 311 | 12.9 | 24.1 | 0.00 | 0.00 | 0.00 | 18 | 1016.3 |
| 20260507110728 | 12 | 263 | 6.4 | 14.5 | 0.00 | 0.00 | 0.00 | 19 | 1016.2 |
| 20260507102728 | 11 | 277 | 11.3 | 22.5 | 0.00 | 0.00 | 0.00 | 21 | 1016.2 |
| 20260507100727 | 11 | 307 | 12.9 | 20.9 | 0.00 | 0.00 | 0.00 | 21 | 1016.2 |
| 20260507094728 | 11 | 227 | 8.0 | 16.1 | 0.00 | 0.00 | 0.00 | 21 | 1016.1 |
| 20260507090728 | 11 | 283 | 9.7 | 19.3 | 0.00 | 0.00 | 0.00 | 21 | 1016.3 |
| 20260507084727 | 10 | 270 | 9.7 | 14.5 | 0.00 | 0.00 | 0.00 | 23 | 1016.3 |
| 20260507082728 | 10 | 280 | 4.8 | 12.9 | 0.00 | 0.00 | 0.00 | 23 | 1016.3 |
| 20260507080727 | 10 | 156 | 6.4 | 14.5 | 0.00 | 0.00 | 0.00 | 22 | 1016.3 |